Location: Unspecified
(0.0000°N, 0.0000°E)
Time: 12:04:21
(UTC+00:00)

Envisat - Pass Details

Date: 14 March 2018
Orbit: 764 x 766 km, 98.2° (Epoch: 25 June)

Event Time Altitude Azimuth Distance (km) Brightness Sun altitude
Exits shadow 20:50:20 15° 297° (WNW) 1,947 5.5 -40.3°
Drops below altitude 10° 20:51:35 10° 309° (NW) 2,292 5.9 -40.6°
Sets 20:54:19 0° 323° (NW) 3,215 6.6 -41.3°
